Other Surface Observations
Issued by NWS

Home | Current Version | Previous Version | Text Only | Print | Product List | Glossary On
Versions: 1 2 3 4 5 6 7 8 9 10 11 12 13 14 15 16 17 18 19 20 21 22 23 24 25 26 27 28 29 30 31 32 33 34 35 36 37 38 39 40 41 42 43 44 45 46 47 48 49 50
000
SXUS52 KTAE 221118
OSOTAE
OSOTAE
North Florida/South Alabama/Southwest Georgia Weather Roundup
National Weather Service Tallahassee Florida
700 AM EDT TUE JUL 22 2014

Note: "fair" indicates few or no clouds below 12,000 feet with no
significant weather and/or obstructions to visibility.

!FLZ017-115-028-034-025-221200
...North Florida...

CITY           SKY/WX    TMP DP  RH WIND       PRES   REMARKS
TALLAHASSEE    PTCLDY    73  69  87 CALM      30.06R
APALACHICOLA   CLEAR     72  69  90 CALM      30.03R
PERRY          NOT AVBL
CROSS CITY       N/A     73  71  93 CALM      30.05R
HOMERVILLE     NOT AVBL
JACKSONVILLE   MOCLDY    73  72  96 CALM      30.06R
$$

!FLZ112-006-005-002-011-221200
...Florida Panhandle...

CITY           SKY/WX    TMP DP  RH WIND       PRES   REMARKS
MARIANNA       CLEAR     73  73 100 SE3       30.04R
BONIFAY        PTSUNNY   71  70  96 CALM      30.06R
PANAMA CITY NW FAIR      72  70  93 CALM      30.03R
TYNDALL AFB    MOCLDY    74  73  96 SE2       30.04R
TYND DRONE APT PTSUNNY   72  71  96 CALM      30.02R
DE FUNIAK SPR  NOT AVBL
EGLIN AFB      PTCLDY    75  75 100 NE6       30.02R THUNDER
DESTIN         MOCLDY    80  75  84 SE5       30.02R
HURLBURT       TSTM      75  70  83 E6        30.01S
CRESTVIEW      CLOUDY    74  74 100 E6        30.05R FOG
PENSACOLA      PTCLDY    75  74  96 CALM      30.01R
$$

!ALZ063-066-221200
...South Alabama...

CITY           SKY/WX    TMP DP  RH WIND       PRES   REMARKS
DOTHAN         PTCLDY    73  72  94 SE3       30.10R
OZARK CAIRNS   PTCLDY    73  72  94 E2        30.06
FT RUCKER HELI CLOUDY    74  71  91 CALM      30.04R
RUCKER HELI 3  MOCLDY    73  72  94 SE3       30.08R
RUCKER HELI 2  MOCLDY    73  71  93 CALM      30.05R
FLORALA APT    FOG       74  73  97 CALM      30.06R VSB 1/2
ANDALUSIA      CLOUDY    77  73  87 SE3       30.05R
TROY           CLOUDY    74  72  93 E5        30.08R
EUFALA         CLOUDY    74  72  93 CALM      30.06R
MOBILE         CLOUDY    74  74 100 CALM      30.01R FOG
$$

!GAZ120>161-221200
...Southwest and South Central Georgia...

CITY           SKY/WX    TMP DP  RH WIND       PRES   REMARKS
THOMASVILLE    NOT AVBL
BAINBRIDGE     MOCLDY    73  72  94 CALM      30.07R FOG
MOODY AFB      PTCLDY    71  71 100 CALM      30.07R
VALDOSTA       PTCLDY    73  68  84 CALM      30.07R
MOULTRIE       CLEAR     70  70 100 CALM      30.09R
BLAKELY        NOT AVBL
ALBANY         CLOUDY    74  73  97 CALM      30.10R
TIFTON         CLOUDY    72  72 100 NE3       30.09R FOG
FITZGERALD     CLOUDY    74  71  91 CALM      30.12R FOG
CORDELE        NOT AVBL
AMERICUS       CLOUDY    70  70 100 E5        30.11R
$$

!GMZ750-755-770-775-221200
...Coastal and Buoy Obs...

STATION/POSITION TIME  TEMP    WIND        PRES    VSBY  WAVE
                       AIR SEA DIR/SP/G                  HT/PER
                 (UTC) (F)     (DEG/KT/KT) (MB)    (MI)  (FT/S)
KEATON BEACH     1100   72      50/  2/  3 1017.8R
CEDAR KEY        1100   77     130/  6/  8 1017.8R
C TOWER          1100   80     160/  5/  6 1017.1R
APALACHICOLA BUO 1100   82 83  170/  4/  4 1016.9R         1/ 5
PANAMA CITY BUOY 0958   81 82  160/ 10/ 10 1016.4          1/ 4
MOBILE BUOY      0959   82 83  280/  4/  6 1016.2
ORANGE BCH AL BU 1100   82 82  230/  8/ 10 1015.9R         2/ 5
$$



USA.gov is the U.S. government's official web portal to all federal, state and local government web resources and services.